Location: Burland Observatory
(39.4088°N, 105.4217°W)
Time: 15:32:56
(UTC-07:00)

S-56A Canister/Altair - Pass Details

Date: 14 December 2019
Orbit: 634 x 2498 km, 38.9° (Epoch: 27 January)

Event Time Altitude Azimuth Distance (km) Brightness Sun altitude
Rises 06:28:58 0° 195° (SSW) 4,784 11.7 -8.6°
Reaches altitude 10° 06:32:30 10° 183° (S) 4,075 11.5 -8.0°
Maximum altitude 06:41:24 27° 131° (SE) 3,455 11.9 -6.4°
Drops below altitude 10° 06:52:18 10° 82° (E) 5,077 12.7 -4.5°
Sets 06:57:18 0° 72° (ENE) 6,168 12.9 -3.6°
